Tracking 30923 objects as of 1-Jul-2025
HD Live streaming from Space Station
objects crossing your sky now

STARLINK-30242

Track STARLINK-30242 now!
10-day predictions
STARLINK-30242 is classified as:


NORAD ID: 57739
Int'l Code: 2023-131H
Perigee: 565.8 km
Apogee: 566.7 km
Inclination: 43.0 °
Period: 95.8 minutes
Semi major axis: 6937 km
RCS: Unknown
Launch date: September 1, 2023
Source: United States (US)
Launch site: AIR FORCE EASTERN TEST RANGE (AFETR)
Your satellite tracking list
Your tracking list is empty




NASA's NSSDC Master Catalog

Two Line Element Set (TLE):
1 57739U 23131H   25181.43250934 -.00000242  00000-0 -28820-5 0  9993
2 57739  43.0047  77.1216 0000650 262.0015  98.0754 15.02536866102279
Source of the keplerian elements: AFSPC